Regional Weather Roundup
Issued by NWS

Home | Current Version | Previous Version | Text Only | Print | Product List | Glossary On
Versions: 1 2 3 4 5 6 7 8 9 10 11 12 13 14 15 16 17 18 19 20 21 22 23 24 25 26 27 28 29 30 31 32 33 34 35 36 37 38 39 40 41 42 43 44 45 46 47 48 49 50
000
ASUS42 KFFC 040403
RWRGA
WEATHER ROUNDUP FOR GEORGIA
NATIONAL WEATHER SERVICE PEACHTREE CITY GA
1200 AM EDT FRI SEP 04 2015

NOTE: "FAIR" INDICATES FEW OR NO CLOUDS BELOW 12,000 FEET WITH NO
SIGNIFICANT WEATHER AND/OR OBSTRUCTIONS TO VISIBILITY.

* = USE WITH CAUTION. THE STATIONS MARKED WITH AN ASTERISK MAY NOT
REPORT WEATHER SUCH AS PRECIPITATION, FOG, OR THUNDER AND ARE NOT
QUALITY CONTROLLED BY NWS.

THE REMARK "TC" DENOTES TEMPERATURE READING IN DEGREES CELSIUS.

GAZ001>058-040500-
NORTH GEORGIA

CITY           SKY/WX    TMP DP  RH WIND       PRES   REMARKS
ATLANTA        PTCLDY    73  67  81 N5        29.98S
ATHENS         MOCLDY    75  69  81 CALM      29.96S
CHAMBLEE       MOCLDY    73  70  90 CALM      29.98F
PEACHTREE CITY CLEAR     69  68  96 CALM      29.98F
ROME           CLEAR     70  67  90 CALM      29.97S
WEST ATLANTA   PTCLDY    71  68  90 CALM      29.98S
GAINESVILLE    PTCLDY    73  67  81 W6        30.00F
CARTERSVILLE   CLEAR     67  67 100 CALM      29.99S


CITY           SKY/WX    TMP DP  RH WIND       PRES   REMARKS
DALTON*        CLEAR     70  70 100 CALM      29.98S
MARIETTA       CLOUDY    71  70  95 CALM      29.98F
BLAIRSVILLE*     N/A     68  60  76 CALM      30.05S HAZE
$$

GAZ059>098-102>109-040500-
CENTRAL GEORGIA

CITY           SKY/WX    TMP DP  RH WIND       PRES   REMARKS
AUGUSTA-BUSH   PTCLDY    74  74 100 CALM      29.92R FOG
AUGUSTA-DANIEL PTCLDY    81  74  79 CALM      29.94S
COLUMBUS       CLEAR     78  71  79 CALM      29.94S
MACON          CLEAR     74  73  97 W7        29.94F
ROBINS AFB     CLEAR     75  74  95 N3        29.93F


CITY           SKY/WX    TMP DP  RH WIND       PRES   REMARKS
LAGRANGE*      CLEAR     76  76  99 CALM      29.97F
MILLEDGEVILLE* CLEAR     77  73  88 CALM      29.94S
$$

GAZ099>101-110>166-040500-
SOUTH GEORGIA

CITY           SKY/WX    TMP DP  RH WIND       PRES   REMARKS
SAVANNAH       MOCLDY    79  76  90 SW6       29.92F
VALDOSTA       MOCLDY    75  74  96 CALM      29.96R
ALMA           CLEAR     76  76 100 CALM      29.94S FOG
ST SIMONS      RAIN      77  75  93 CALM      29.94R FOG
FT STEWART     CLOUDY    80  77  92 CALM      29.92R
ALBANY         CLEAR     77  71  82 SW6       29.97R
HUNTER AFB     CLOUDY    79  79 100 SW2       29.90F
MOODY AFB      MOCLDY    78  73  85 MISG      29.94F
BRUNSWICK      CLOUDY    77  75  94 CALM      29.94F


CITY           SKY/WX    TMP DP  RH WIND       PRES   REMARKS
BAINBRIDGE*    MOCLDY    77  73  88 W3        29.96S
MOULTRIE*      CLEAR     77  72  83 CALM      29.97S
VIDALIA*       PTCLDY    77  75  94 CALM      29.94S
WAYCROSS*      CLEAR     80  79  99 CALM      29.94S
DOUGLAS*       CLEAR     79  77  94 CALM      29.96S
$$



USA.gov is the U.S. government's official web portal to all federal, state and local government web resources and services.